KLM100 LATI-LGSA

Flight info

Callsign KLM100
Flight time 1h 3m
Altitude 31000
Route ELBAK DCT DIMIS UL604 TRL UJ65 SOKRI
Aircraft B738/M-VGDW/C

Departure

Time 2026-05-08 18:17
Airport Tirana International Airport Mother Teresa (LATI)

Arrival

Time 2026-05-08 19:20
Airport Chania International Airport (LGSA)
Time Latitude Longitude Altitude Speed Heading
2026-05-08 17:48 41.42262 19.71480 112 ft 0 kts 264°
2026-05-08 18:11 41.42262 19.71483 112 ft 3 kts 264°
2026-05-08 18:12 41.42265 19.71517 111 ft 2 kts 265°
2026-05-08 18:12 41.42266 19.71539 111 ft 1 kts 278°
2026-05-08 18:12 41.42262 19.71556 112 ft 1 kts 302°
2026-05-08 18:12 41.42254 19.71568 112 ft 1 kts 325°
2026-05-08 18:13 41.42242 19.71575 112 ft 1 kts 347°
2026-05-08 18:13 41.42233 19.71578 112 ft 0 kts 354°
2026-05-08 18:13 41.42263 19.71557 112 ft 23 kts 328°
2026-05-08 18:13 41.42430 19.71529 110 ft 37 kts 355°
2026-05-08 18:14 41.42663 19.71530 110 ft 26 kts 60°
2026-05-08 18:14 41.42686 19.71797 110 ft 29 kts 86°
2026-05-08 18:14 41.42627 19.71906 111 ft 0 kts 174°
2026-05-08 18:16 41.42579 19.71912 112 ft 33 kts 174°
2026-05-08 18:16 41.42060 19.71981 116 ft 113 kts 175°
2026-05-08 18:16 41.41043 19.72117 130 ft 178 kts 174°
2026-05-08 18:16 41.39756 19.72289 581 ft 179 kts 174°
2026-05-08 18:17 41.38437 19.72440 1303 ft 212 kts 175°
2026-05-08 18:17 41.36889 19.72609 1640 ft 225 kts 175°
2026-05-08 18:17 41.35316 19.72772 1973 ft 224 kts 175°
2026-05-08 18:17 41.33755 19.72926 2277 ft 223 kts 175°
2026-05-08 18:18 41.32204 19.73082 2573 ft 223 kts 172°
2026-05-08 18:18 41.30738 19.73809 2752 ft 229 kts 146°
2026-05-08 18:18 41.29578 19.75324 2981 ft 235 kts 134°
2026-05-08 18:18 41.28186 19.76580 3237 ft 251 kts 152°
2026-05-08 18:19 41.26629 19.77708 3586 ft 260 kts 145°
2026-05-08 18:19 41.25340 19.79495 3972 ft 269 kts 124°
2026-05-08 18:19 41.24274 19.81609 4497 ft 282 kts 124°
2026-05-08 18:19 41.23090 19.83791 5078 ft 288 kts 133°
2026-05-08 18:20 41.21398 19.85469 5562 ft 291 kts 152°
2026-05-08 18:20 41.19360 19.86659 6143 ft 305 kts 154°
2026-05-08 18:20 41.17313 19.87965 6925 ft 325 kts 153°
2026-05-08 18:20 41.15124 19.89393 7738 ft 330 kts 152°
2026-05-08 18:21 41.12963 19.90809 8463 ft 334 kts 152°
2026-05-08 18:21 41.10821 19.92212 9215 ft 353 kts 152°
2026-05-08 18:21 41.08542 19.93703 10094 ft 367 kts 152°
2026-05-08 18:21 41.06181 19.95247 11005 ft 382 kts 152°
2026-05-08 18:22 41.03756 19.96831 11901 ft 391 kts 153°
2026-05-08 18:22 41.01279 19.98447 12801 ft 397 kts 153°
2026-05-08 18:22 40.98674 20.00145 13719 ft 404 kts 153°
2026-05-08 18:22 40.96076 20.01838 14621 ft 410 kts 153°
2026-05-08 18:23 40.93460 20.03538 15522 ft 416 kts 153°
2026-05-08 18:23 40.90738 20.05305 16463 ft 423 kts 153°
2026-05-08 18:23 40.87513 20.07398 17584 ft 431 kts 153°
2026-05-08 18:23 40.84700 20.09239 18575 ft 438 kts 153°
2026-05-08 18:24 40.81858 20.11104 19563 ft 443 kts 153°
2026-05-08 18:24 40.78910 20.13038 20552 ft 449 kts 153°
2026-05-08 18:24 40.76017 20.14934 21489 ft 453 kts 152°
2026-05-08 18:24 40.73073 20.16863 22436 ft 457 kts 152°
2026-05-08 18:25 40.69904 20.18934 23442 ft 459 kts 152°
2026-05-08 18:25 40.66933 20.20876 24373 ft 461 kts 152°
2026-05-08 18:25 40.63937 20.22831 25299 ft 463 kts 152°
2026-05-08 18:25 40.60957 20.24775 26206 ft 464 kts 152°
2026-05-08 18:26 40.57977 20.26717 27095 ft 464 kts 152°
2026-05-08 18:26 40.54975 20.28669 27972 ft 464 kts 152°
2026-05-08 18:26 40.52011 20.30598 28822 ft 463 kts 152°
2026-05-08 18:26 40.49038 20.32529 29653 ft 463 kts 152°
2026-05-08 18:27 40.46050 20.34467 30466 ft 462 kts 152°
2026-05-08 18:27 40.44110 20.35727 30936 ft 463 kts 152°
2026-05-08 18:27 40.40089 20.38332 31070 ft 484 kts 152°
2026-05-08 18:27 40.36839 20.40436 31090 ft 501 kts 152°
2026-05-08 18:28 40.33523 20.42581 31104 ft 518 kts 152°
2026-05-08 18:28 40.30081 20.44801 31184 ft 533 kts 152°
2026-05-08 18:28 40.23083 20.49309 31158 ft 542 kts 152°
2026-05-08 18:29 40.15831 20.53969 31076 ft 539 kts 152°
2026-05-08 18:29 40.09938 20.57749 31077 ft 539 kts 152°
2026-05-08 18:30 40.04386 20.61426 31084 ft 538 kts 150°
2026-05-08 18:30 39.96247 20.66970 31076 ft 539 kts 151°
2026-05-08 18:31 39.87966 20.72594 31072 ft 538 kts 151°
2026-05-08 18:31 39.80449 20.77687 31069 ft 539 kts 151°
2026-05-08 18:32 39.73135 20.82628 31043 ft 528 kts 151°
2026-05-08 18:32 39.69888 20.84816 31034 ft 504 kts 151°
2026-05-08 18:32 39.66779 20.86911 30981 ft 483 kts 151°
2026-05-08 18:33 39.63763 20.88942 30954 ft 462 kts 151°
2026-05-08 18:33 39.60905 20.90870 30957 ft 443 kts 152°
2026-05-08 18:33 39.58176 20.92708 30965 ft 425 kts 152°
2026-05-08 18:33 39.55603 20.94437 30974 ft 407 kts 152°
2026-05-08 18:34 39.53095 20.96120 30984 ft 390 kts 153°
2026-05-08 18:34 39.50717 20.97715 30994 ft 374 kts 154°
2026-05-08 18:34 39.48457 20.99230 30999 ft 358 kts 154°
2026-05-08 18:34 39.46267 21.00697 31008 ft 345 kts 155°
2026-05-08 18:35 39.41958 21.03573 31076 ft 351 kts 156°
2026-05-08 18:35 39.37614 21.06473 31075 ft 349 kts 157°
2026-05-08 18:36 39.33299 21.09356 31107 ft 339 kts 158°
2026-05-08 18:36 39.31226 21.10731 31057 ft 325 kts 158°
2026-05-08 18:36 39.29247 21.12042 31049 ft 315 kts 158°
2026-05-08 18:37 39.25297 21.14663 31066 ft 323 kts 158°
2026-05-08 18:37 39.21063 21.17474 31049 ft 327 kts 158°
2026-05-08 18:38 39.18977 21.18856 31076 ft 338 kts 158°
2026-05-08 18:38 39.16821 21.20283 31110 ft 354 kts 158°
2026-05-08 18:38 39.12360 21.23242 31051 ft 351 kts 157°
2026-05-08 18:39 39.08021 21.26112 31044 ft 346 kts 157°
2026-05-08 18:39 39.03687 21.28972 31050 ft 353 kts 157°
2026-05-08 18:40 39.01467 21.30435 31107 ft 368 kts 157°
2026-05-08 18:40 38.99084 21.32002 31118 ft 385 kts 157°
2026-05-08 18:40 38.94205 21.35219 31079 ft 394 kts 157°
2026-05-08 18:41 38.88856 21.38733 31140 ft 418 kts 157°
2026-05-08 18:41 38.86167 21.40497 31143 ft 432 kts 156°
2026-05-08 18:41 38.83458 21.42276 31108 ft 434 kts 156°
2026-05-08 18:42 38.77944 21.45888 31120 ft 448 kts 156°
2026-05-08 18:42 38.72348 21.49549 31081 ft 445 kts 156°
2026-05-08 18:43 38.66790 21.53178 31106 ft 452 kts 156°
2026-05-08 18:43 38.61134 21.56863 31097 ft 459 kts 156°
2026-05-08 18:44 38.55426 21.60576 31097 ft 461 kts 156°
2026-05-08 18:44 38.49688 21.64301 31097 ft 469 kts 156°
2026-05-08 18:45 38.43339 21.68417 31079 ft 467 kts 157°
2026-05-08 18:45 38.37454 21.72223 31048 ft 466 kts 157°
2026-05-08 18:46 38.31533 21.76045 31134 ft 484 kts 156°
2026-05-08 18:46 38.25523 21.79919 31083 ft 481 kts 156°
2026-05-08 18:47 38.19540 21.83769 31047 ft 481 kts 156°
2026-05-08 18:47 38.13592 21.87586 31046 ft 481 kts 157°
2026-05-08 18:48 38.07583 21.91437 31048 ft 481 kts 156°
2026-05-08 18:48 38.01568 21.95285 31060 ft 488 kts 156°
2026-05-08 18:49 37.95394 21.99225 31116 ft 498 kts 156°
2026-05-08 18:49 37.89166 22.03196 31050 ft 496 kts 156°
2026-05-08 18:50 37.82938 22.07155 31136 ft 504 kts 156°
2026-05-08 18:50 37.76714 22.11108 31105 ft 502 kts 156°
2026-05-08 18:51 37.70477 22.15060 31105 ft 501 kts 156°
2026-05-08 18:51 37.64197 22.19031 31101 ft 502 kts 156°
2026-05-08 18:52 37.57971 22.22961 31102 ft 502 kts 156°
2026-05-08 18:52 37.51756 22.26877 31102 ft 501 kts 156°
2026-05-08 18:53 37.45470 22.30830 31103 ft 502 kts 156°
2026-05-08 18:53 37.39392 22.35160 31096 ft 506 kts 147°
2026-05-08 18:54 37.33809 22.40636 31106 ft 508 kts 144°
2026-05-08 18:54 37.28307 22.46159 31104 ft 508 kts 144°
2026-05-08 18:55 37.19849 22.54630 31102 ft 508 kts 144°
2026-05-08 18:56 37.14324 22.60148 31101 ft 508 kts 144°
2026-05-08 18:56 37.08630 22.65824 31100 ft 510 kts 145°
2026-05-08 18:57 37.03030 22.71394 31101 ft 514 kts 144°
2026-05-08 18:57 37.00232 22.74178 31052 ft 495 kts 144°
2026-05-08 18:57 36.97592 22.76801 31070 ft 476 kts 144°
2026-05-08 18:58 36.92348 22.81998 31092 ft 482 kts 144°
2026-05-08 18:58 36.87064 22.87230 31100 ft 482 kts 144°
2026-05-08 18:59 36.81823 22.92407 31102 ft 483 kts 144°
2026-05-08 18:59 36.76555 22.97603 31082 ft 474 kts 145°
2026-05-08 18:59 36.73973 23.00147 31052 ft 461 kts 145°
2026-05-08 19:00 36.71509 23.02572 31020 ft 451 kts 145°
2026-05-08 19:00 36.66638 23.07355 31052 ft 440 kts 146°
2026-05-08 19:01 36.61834 23.12066 31078 ft 440 kts 145°
2026-05-08 19:01 36.57029 23.16773 31085 ft 442 kts 146°
2026-05-08 19:02 36.52232 23.21462 30257 ft 438 kts 146°
2026-05-08 19:02 36.49855 23.23786 29526 ft 427 kts 146°
2026-05-08 19:02 36.47543 23.26040 28016 ft 425 kts 145°
2026-05-08 19:02 36.45272 23.28255 26898 ft 413 kts 145°
2026-05-08 19:03 36.43044 23.30425 25606 ft 407 kts 145°
2026-05-08 19:03 36.40859 23.32553 24389 ft 399 kts 145°
2026-05-08 19:03 36.38710 23.34643 23178 ft 391 kts 145°
2026-05-08 19:03 36.36618 23.36678 21993 ft 383 kts 145°
2026-05-08 19:04 36.34560 23.38677 20819 ft 376 kts 145°
2026-05-08 19:04 36.32524 23.40653 19637 ft 370 kts 145°
2026-05-08 19:04 36.30540 23.42578 18480 ft 363 kts 145°
2026-05-08 19:04 36.28576 23.44482 17337 ft 356 kts 145°
2026-05-08 19:05 36.26637 23.46362 16193 ft 350 kts 145°
2026-05-08 19:05 36.24745 23.48166 15086 ft 344 kts 145°
2026-05-08 19:05 36.22736 23.49608 14097 ft 328 kts 163°
2026-05-08 19:05 36.20603 23.50068 14083 ft 303 kts 181°
2026-05-08 19:06 36.18503 23.50027 13667 ft 301 kts 184°
2026-05-08 19:06 36.16397 23.49967 13286 ft 299 kts 183°
2026-05-08 19:06 36.14319 23.50140 12858 ft 299 kts 176°
2026-05-08 19:06 36.12253 23.50438 11869 ft 319 kts 175°
2026-05-08 19:07 36.10055 23.50834 11335 ft 317 kts 174°
2026-05-08 19:07 36.07853 23.51230 10690 ft 322 kts 174°
2026-05-08 19:07 36.05640 23.51619 10319 ft 315 kts 174°
2026-05-08 19:07 36.03486 23.51997 9802 ft 315 kts 174°
2026-05-08 19:08 36.01329 23.52368 9349 ft 313 kts 174°
2026-05-08 19:08 35.99132 23.52740 8860 ft 313 kts 174°
2026-05-08 19:08 35.96961 23.53100 8396 ft 311 kts 174°
2026-05-08 19:08 35.94793 23.53452 7938 ft 310 kts 174°
2026-05-08 19:09 35.92672 23.53790 7493 ft 308 kts 174°
2026-05-08 19:09 35.90525 23.54124 7047 ft 306 kts 174°
2026-05-08 19:09 35.88426 23.54444 6833 ft 296 kts 174°
2026-05-08 19:09 35.86444 23.54748 6810 ft 281 kts 174°
2026-05-08 19:10 35.84535 23.55043 6725 ft 270 kts 174°
2026-05-08 19:10 35.82716 23.55407 6622 ft 260 kts 171°
2026-05-08 19:10 35.80986 23.55787 6285 ft 249 kts 171°
2026-05-08 19:10 35.79281 23.56209 5646 ft 249 kts 169°
2026-05-08 19:11 35.77672 23.56620 5540 ft 226 kts 169°
2026-05-08 19:11 35.76179 23.57003 5327 ft 214 kts 169°
2026-05-08 19:11 35.74718 23.57374 4892 ft 213 kts 169°
2026-05-08 19:11 35.73300 23.57897 4471 ft 212 kts 150°
2026-05-08 19:12 35.72215 23.59117 4069 ft 209 kts 125°
2026-05-08 19:12 35.71370 23.60590 3581 ft 216 kts 124°
2026-05-08 19:12 35.70495 23.62150 3493 ft 225 kts 121°
2026-05-08 19:12 35.69720 23.63882 3445 ft 224 kts 114°
2026-05-08 19:13 35.69114 23.65642 3431 ft 221 kts 109°
2026-05-08 19:13 35.68535 23.67591 3578 ft 260 kts 109°
2026-05-08 19:13 35.67901 23.69739 3462 ft 267 kts 109°
2026-05-08 19:13 35.67242 23.71930 3484 ft 280 kts 111°
2026-05-08 19:14 35.66490 23.74233 3501 ft 306 kts 111°
2026-05-08 19:14 35.65641 23.76838 3651 ft 347 kts 111°
2026-05-08 19:14 35.64740 23.79604 3508 ft 341 kts 111°
2026-05-08 19:14 35.63879 23.82247 3413 ft 321 kts 111°
2026-05-08 19:15 35.63070 23.84726 3397 ft 301 kts 111°
2026-05-08 19:15 35.62307 23.87059 3371 ft 284 kts 111°
2026-05-08 19:15 35.61585 23.89268 3355 ft 269 kts 111°
2026-05-08 19:15 35.60897 23.91363 3357 ft 254 kts 111°
2026-05-08 19:16 35.60255 23.93319 3366 ft 240 kts 111°
2026-05-08 19:16 35.59649 23.95158 3466 ft 210 kts 111°
2026-05-08 19:16 35.59132 23.96719 3389 ft 182 kts 111°
2026-05-08 19:16 35.58683 23.98065 3196 ft 160 kts 111°
2026-05-08 19:17 35.58259 23.99338 2668 ft 160 kts 111°
2026-05-08 19:17 35.57853 24.00561 2518 ft 150 kts 111°
2026-05-08 19:17 35.57443 24.01794 2426 ft 151 kts 111°
2026-05-08 19:17 35.57035 24.03028 2063 ft 155 kts 111°
2026-05-08 19:18 35.56618 24.04294 1954 ft 151 kts 111°
2026-05-08 19:18 35.56196 24.05582 1567 ft 155 kts 111°
2026-05-08 19:18 35.55784 24.06842 1547 ft 154 kts 111°
2026-05-08 19:18 35.55365 24.08118 1573 ft 152 kts 111°
2026-05-08 19:19 35.54951 24.09397 1336 ft 150 kts 110°
2026-05-08 19:19 35.54570 24.10632 899 ft 148 kts 110°
2026-05-08 19:19 35.54177 24.11908 618 ft 139 kts 111°
2026-05-08 19:19 35.53799 24.13076 474 ft 125 kts 112°
2026-05-08 19:20 35.53467 24.14075 444 ft 85 kts 112°
2026-05-08 19:20 35.53370 24.14374 448 ft 46 kts 111°
2026-05-08 19:20 35.53229 24.14807 456 ft 34 kts 112°
2026-05-08 19:20 35.53153 24.15043 462 ft 20 kts 108°
2026-05-08 19:21 35.53176 24.15128 461 ft 6 kts 21°
2026-05-08 19:21 35.53182 24.15131 460 ft 0 kts 21°
2026-05-08 19:21 35.53184 24.15132 460 ft 0 kts 21°
2026-05-08 19:21 35.53192 24.15136 460 ft 0 kts 21°
2026-05-08 19:22 35.53198 24.15139 459 ft 5 kts 22°
2026-05-08 19:23 35.53276 24.15172 455 ft 14 kts 355°
2026-05-08 19:23 35.53358 24.14976 450 ft 42 kts 292°
2026-05-08 19:23 35.53463 24.14652 440 ft 30 kts 292°
2026-05-08 19:23 35.53544 24.14402 436 ft 27 kts 292°
2026-05-08 19:24 35.53635 24.14360 430 ft 10 kts 22°
2026-05-08 19:24 35.53694 24.14335 427 ft 8 kts 292°
2026-05-08 19:24 35.53714 24.14273 426 ft 4 kts 291°
2026-05-08 19:24 35.53732 24.14218 426 ft 5 kts 291°
2026-05-08 19:25 35.53748 24.14180 425 ft 0 kts 330°
2026-05-08 19:25 35.53777 24.14187 424 ft 5 kts 22°
2026-05-08 19:25 35.53807 24.14202 423 ft 3 kts 21°
2026-05-08 19:25 35.53820 24.14209 422 ft 0 kts 21°